Location: Villingen
(48.0639°N, 8.4609°E)
Time: 18:55:25
(UTC+01:00)

Envisat - Visible Passes

Search period start: 25 February 2018 00:00
Search period end: 07 March 2018 00:00
Orbit: 764 x 766 km, 98.2° (Epoch: 25 February)

Date Brightness Start Highest point End Pass type
(mag) Time Alt. Az. Time Alt. Az. Time Alt. Az.
25 Feb 3.3 19:07:40 10° SE 19:12:27 43° ENE 19:17:15 10° N visible
25 Feb 4.9 20:47:17 10° SSW 20:51:37 28° W 20:55:59 10° NW visible
26 Feb 4.1 18:32:07 10° ESE 18:36:02 23° ENE 18:39:57 10° N visible
26 Feb 3.6 20:09:41 10° S 20:14:41 57° W 20:19:43 10° NNW visible
27 Feb 2.9 19:32:53 10° SSE 19:37:57 71° ENE 19:43:01 10° N visible
27 Feb 5.6 21:14:13 10° SW 21:17:30 17° W 21:20:47 10° NW visible
28 Feb 3.6 18:56:47 10° SE 19:01:23 36° ENE 19:05:59 10° N visible
28 Feb 4.5 20:35:48 10° SSW 20:40:24 34° W 20:45:03 10° NNW visible
01 Mar 3.2 19:58:27 10° S 20:03:31 71° WSW 20:08:37 10° NNW visible
02 Mar 3.0 19:21:52 10° SSE 19:26:50 58° ENE 19:31:49 10° N visible
02 Mar 5.3 21:02:25 10° SW 21:06:14 21° W 21:10:04 10° NW visible
03 Mar 3.8 18:45:59 10° ESE 18:50:20 30° ENE 18:54:42 10° N visible
03 Mar 4.1 20:24:23 10° S 20:29:11 42° W 20:34:02 10° NNW visible
04 Mar 3.0 19:47:17 10° SSE 19:52:22 87° WSW 19:57:30 10° NNW visible
04 Mar 5.9 21:30:02 10° WSW 21:32:09 12° W 21:34:17 10° WNW visible
05 Mar 3.3 19:10:54 10° SE 19:15:45 47° ENE 19:20:36 10° N visible
05 Mar 5.0 20:50:47 10° SSW 20:54:59 26° W 20:59:13 10° NW visible
06 Mar 3.8 20:13:03 10° S 20:18:01 52° W 20:22:59 10° NNW visible
